Date String (YYYY-MM-DD hh:mm:ss) UTC,Instrument flags,Ambient pressure (hPa),Sample flow (lpm),Bypass flow (lpm),Sample temperature (°C),Ambient temperature (°C),ASC tube jacket temperature (°C),LED temperature (°C),Box temperature (°C),Sample RH (%),Span deviation,Mass concentration (μg/m³),Mass concentration (μg/m³),Mass concentration (μg/m³)
DateTimeUTC,F1_M11,P_M11,Q1_M11,Q2_M11,T1_M11,T2_M11,T3_M11,T4_M11,T5_M11,U1_M11,ZSPAN_M11,X0_M11,X2_M11,X1_M11
2021-12-14 02:00:00,,0824.0,5.01,0.00,29.2,28.3,00.0,38.3,30.8,06.3,0000.0,0027.90,0006.71,0004.48
2021-12-14 02:01:00,,0824.0,4.99,0.00,29.2,28.3,00.0,38.3,30.7,06.2,0000.0,0028.33,0006.78,0004.49
2021-12-14 02:02:00,,0824.0,5.00,0.00,29.1,28.3,00.0,38.3,30.7,06.2,0000.0,0027.72,0006.73,0004.46
2021-12-14 02:03:00,,0824.0,4.99,0.00,29.1,28.2,00.0,38.3,30.7,06.1,0000.0,0027.27,0006.68,0004.40
2021-12-14 02:04:00,,0824.1,5.01,0.00,29.1,28.2,00.0,38.3,30.6,06.2,0000.0,0028.51,0006.61,0004.35
2021-12-14 02:05:00,,0824.0,4.99,0.00,29.0,28.2,00.0,38.2,30.6,06.2,0000.0,0029.49,0006.53,0004.32
2021-12-14 02:06:00,,0824.0,5.02,0.00,29.0,28.1,00.0,38.2,30.6,06.2,0000.0,0028.79,0006.46,0004.29
2021-12-14 02:07:00,,0824.0,4.98,0.00,29.0,28.1,00.0,38.2,30.6,06.2,0000.0,0028.65,0006.41,0004.25
2021-12-14 02:08:00,,0824.0,5.01,0.00,29.0,28.1,00.0,38.2,30.6,06.2,0000.0,0028.13,0006.28,0004.22
2021-12-14 02:09:00,,0824.0,5.00,0.00,28.9,28.0,00.0,38.1,30.5,06.2,0000.0,0028.28,0006.21,0004.19
2021-12-14 02:10:00,,0824.0,5.00,0.00,28.9,28.0,00.0,38.1,30.5,06.2,0000.0,0027.52,0006.20,0004.17
2021-12-14 02:11:00,,0824.0,5.01,0.00,28.9,27.9,00.0,38.1,30.5,06.2,0001.4,0027.56,0006.23,0004.16
2021-12-14 02:12:00,,0824.0,4.99,0.00,28.8,27.9,00.0,38.1,30.4,06.2,0004.1,0027.84,0006.26,0004.13
2021-12-14 02:13:00,,0824.0,5.01,0.00,28.8,27.8,00.0,38.0,30.3,06.2,0003.0,0027.82,0006.23,0004.12
2021-12-14 02:14:00,,0824.0,4.99,0.00,28.8,27.8,00.0,38.0,30.3,06.1,0003.8,0027.72,0006.22,0004.12
2021-12-14 02:15:00,,0823.9,5.01,0.00,28.8,27.9,00.0,38.0,30.4,06.2,0003.1,0026.20,0006.28,0004.14
2021-12-14 02:16:00,,0823.9,4.99,0.00,28.8,27.9,00.0,38.0,30.4,06.2,0001.7,0026.92,0006.29,0004.14
2021-12-14 02:17:00,,0824.0,5.00,0.00,28.8,27.9,00.0,37.9,30.4,06.1,0000.4,0028.08,0006.25,0004.10
2021-12-14 02:18:00,,0824.0,5.00,0.00,28.8,27.9,00.0,37.9,30.4,06.1,-000.1,0027.34,0006.15,0004.06
2021-12-14 02:19:00,,0824.0,4.99,0.00,28.8,28.0,00.0,37.9,30.4,06.1,0000.0,0027.02,0006.20,0004.04
2021-12-14 02:20:00,,0824.1,5.01,0.00,28.8,28.0,00.0,37.9,30.4,06.1,0000.0,0027.29,0006.21,0004.02
2021-12-14 02:21:00,,0824.1,4.99,0.00,28.8,27.9,00.0,37.9,30.4,06.1,0000.0,0028.29,0006.20,0004.00
2021-12-14 02:22:00,,0824.1,5.01,0.00,28.7,27.9,00.0,37.9,30.3,06.1,0000.0,0028.21,0006.11,0003.97
2021-12-14 02:23:00,,0824.1,4.99,0.00,28.7,27.8,00.0,37.9,30.3,06.2,0000.0,0027.83,0006.01,0003.98
2021-12-14 02:24:00,,0824.1,5.00,0.00,28.7,27.8,00.0,37.8,30.3,06.2,0000.0,0028.93,0006.03,0003.99
2021-12-14 02:25:00,,0824.0,4.99,0.00,28.7,27.8,00.0,37.8,30.3,06.2,0000.3,0029.58,0006.04,0004.03
2021-12-14 02:26:00,,0824.1,5.01,0.00,28.7,27.8,00.0,37.8,30.3,06.2,0000.0,0029.69,0006.00,0004.05
2021-12-14 02:27:00,,0824.0,4.99,0.00,28.7,27.8,00.0,37.8,30.3,06.2,0000.4,0028.74,0006.08,0004.06
2021-12-14 02:28:00,,0824.1,4.99,0.00,28.7,27.8,00.0,37.8,30.3,06.2,0001.2,0028.85,0006.19,0004.11
2021-12-14 02:29:00,,0824.1,5.00,0.00,28.7,27.8,00.0,37.8,30.3,06.2,0001.4,0029.02,0006.28,0004.15
2021-12-14 02:30:00,,0824.1,5.01,0.00,28.7,27.8,00.0,37.8,30.3,06.2,0003.2,0029.22,0006.34,0004.19
2021-12-14 02:31:00,,0824.0,4.99,0.00,28.7,27.8,00.0,37.8,30.3,06.2,0003.3,0029.49,0006.41,0004.22
2021-12-14 02:32:00,,0824.0,5.00,0.00,28.6,27.8,00.0,37.7,30.3,06.2,0003.3,0029.18,0006.48,0004.24
2021-12-14 02:33:00,,0824.0,4.99,0.00,28.6,27.7,00.0,37.7,30.2,06.1,0003.2,0030.09,0006.57,0004.25
2021-12-14 02:34:00,,0824.0,5.01,0.00,28.6,27.7,00.0,37.7,30.2,06.1,0002.8,0030.97,0006.56,0004.23
2021-12-14 02:35:00,,0824.1,5.01,0.00,28.5,27.7,00.0,37.7,30.1,06.2,0002.9,0030.54,0006.57,0004.21
2021-12-14 02:36:00,,0824.1,4.98,0.00,28.5,27.6,00.0,37.7,30.1,06.2,0003.1,0032.90,0006.65,0004.22
2021-12-14 02:37:00,,0824.0,5.00,0.00,28.4,27.6,00.0,37.6,30.0,06.2,0002.5,0032.03,0006.67,0004.21
2021-12-14 02:38:00,,0823.9,5.01,0.00,28.4,27.5,00.0,37.6,29.9,06.2,0003.2,0033.80,0006.66,0004.21
2021-12-14 02:39:00,,0824.0,5.00,0.00,28.4,27.5,00.0,37.6,29.9,06.3,0004.7,0032.83,0006.62,0004.20
2021-12-14 02:40:00,,0824.0,4.99,0.00,28.3,27.4,00.0,37.6,29.9,06.3,0004.9,0031.74,0006.56,0004.19
2021-12-14 02:41:00,,0824.1,5.00,0.00,28.3,27.4,00.0,37.5,29.9,06.3,0004.9,0031.73,0006.53,0004.20
2021-12-14 02:42:00,,0824.1,5.00,0.00,28.3,27.4,00.0,37.5,29.9,06.3,0004.6,0031.25,0006.52,0004.20
2021-12-14 02:43:00,,0824.1,4.99,0.00,28.3,27.4,00.0,37.5,29.9,06.3,0004.8,0031.33,0006.48,0004.21
2021-12-14 02:44:00,,0824.1,5.01,0.00,28.3,27.4,00.0,37.5,29.9,06.3,0004.4,0031.17,0006.46,0004.23
2021-12-14 02:45:00,,0824.1,4.99,0.00,28.3,27.5,00.0,37.5,29.9,06.2,0004.9,0029.73,0006.49,0004.24
2021-12-14 02:46:00,,0824.1,5.01,0.00,28.3,27.5,00.0,37.5,30.0,06.1,0005.5,0030.13,0006.50,0004.20
2021-12-14 02:47:00,,0824.1,5.00,0.00,28.3,27.5,00.0,37.4,30.0,06.1,0004.9,0026.53,0006.38,0004.12
2021-12-14 02:48:00,,0824.1,5.00,0.00,28.3,27.6,00.0,37.4,30.1,06.1,0006.3,0025.65,0006.26,0004.05
2021-12-14 02:49:00,,0824.1,5.01,0.00,28.4,27.6,00.0,37.4,30.1,06.1,0000.7,0024.90,0006.15,0003.98
2021-12-14 02:50:00,,0824.1,4.99,0.00,28.4,27.6,00.0,37.4,30.1,06.1,0000.0,0023.26,0006.03,0003.93
2021-12-14 02:51:00,,0824.0,5.00,0.00,28.4,27.6,00.0,37.4,30.1,06.1,0000.5,0023.19,0005.97,0003.89
2021-12-14 02:52:00,,0824.0,5.01,0.00,28.4,27.6,00.0,37.4,30.1,06.1,0000.0,0023.15,0005.88,0003.84
2021-12-14 02:53:00,,0824.1,5.00,0.00,28.4,27.6,00.0,37.4,30.1,06.2,0000.0,0022.85,0005.83,0003.79
2021-12-14 02:54:00,,0824.1,5.00,0.00,28.4,27.7,00.0,37.4,30.1,06.2,0000.0,0023.42,0005.83,0003.77
2021-12-14 02:55:00,,0824.1,5.01,0.00,28.4,27.7,00.0,37.4,30.1,06.2,0000.0,0023.55,0005.79,0003.75
2021-12-14 02:56:00,,0824.0,4.99,0.00,28.4,27.6,00.0,37.4,30.1,06.2,0000.0,0024.95,0005.81,0003.76
2021-12-14 02:57:00,,0824.1,5.02,0.00,28.4,27.6,00.0,37.4,30.1,06.2,0000.0,0026.40,0005.85,0003.81
2021-12-14 02:58:00,,0824.0,4.99,0.00,28.4,27.6,00.0,37.4,30.1,06.2,0000.0,0027.34,0005.94,0003.89
2021-12-14 02:59:00,,0824.1,5.00,0.00,28.4,27.6,00.0,37.4,30.0,06.2,0000.0,0028.49,0006.05,0003.96
